[[{"header":{"parameterUnit":"m.s-1","parameterCategory":1,"la1":30.2991,"la2":30.254,"lo1":-89.0895,"lo2":-89.0444,"dy":0.0017,"dx":0.0017,"nx":28,"ny":28,"refTime":"2024-02-13T03:00:00:Z","depth":0,"parameterNumber":2,"parameterNumberName":"U-component_of_WINDS"},"data":[0,0,0,0,0,0,0,0,0,0,0,0,0,0,0,0,0,0,0,0,0,0,0,0,0,0,0,0,0,0,0,0,0,0,0,0,0,0,0,0,0,0,0,0,0,0,0,0,0,0,0,0,0,0,0,0,0,0,-1.8293,-1.8292,0,-1.827,-1.827,-1.827,-1.8183,-1.8181,-1.8179,-1.8177,-1.8157,-1.8158,-1.8159,0,0,0,0,0,0,0,0,0,0,0,0,0,-1.8265,-1.8266,-1.8293,-1.8292,-1.8292,-1.827,-1.827,-1.827,-1.8183,-1.8181,-1.8178,-1.8176,-1.8156,-1.8158,-1.816,0,0,0,0,0,0,0,0,0,0,0,0,0,-1.8263,-1.8266,-1.8293,-1.8246,-1.8242,-1.827,-1.827,-1.827,-1.8183,-1.818,-1.8177,-1.8175,-1.8156,-1.8158,-1.816,-1.8233,0,0,-1.8166,-1.8167,0,0,0,0,0,0,0,0,-1.8264,-1.8264,-1.8253,-1.8249,-1.8244,-1.8226,-1.8253,-1.8257,-1.8184,-1.8206,-1.8177,-1.8173,-1.8183,-1.8182,-1.8185,-1.8232,-1.8231,-1.8166,-1.8167,-1.8168,-1.8169,0,0,0,0,0,0,0,-1.8264,-1.8265,-1.8284,-1.8253,-1.8248,-1.8228,-1.8224,-1.8253,-1.8211,-1.8204,-1.8197,-1.8196,-1.818,-1.8183,-1.8184,-1.823,-1.8166,-1.8168,-1.8169,-1.817,-1.8339,-1.8342,0,0,0,0,0,0,-1.827,-1.8266,-1.8285,-1.8283,-1.8247,-1.8231,-1.8227,-1.8235,-1.8211,-1.8204,-1.8198,-1.8192,-1.8181,-1.8181,-1.8183,-1.8267,-1.8168,-1.817,-1.8171,-1.8336,-1.834,-1.8343,0,0,0,0,0,0,-1.827,-1.8272,-1.8285,-1.8273,-1.8273,-1.8234,-1.8245,-1.8236,-1.8239,-1.8207,-1.8199,-1.8209,-1.8179,-1.818,-1.8221,-1.8265,-1.8171,-1.8173,-1.8332,-1.8337,-1.8341,-1.8437,0,0,0,0,0,0,-1.8269,-1.8273,-1.8299,-1.8274,-1.8274,-1.8323,-1.8247,-1.8238,-1.8243,-1.8234,-1.8215,-1.8209,-1.8176,-1.8219,-1.8223,-1.8267,-1.8174,-1.8327,-1.8334,-1.834,-1.843,-1.8445,-1.8458,0,0,0,0,0,-1.8269,-1.8327,-1.83,-1.8303,-1.8305,-1.8326,-1.8326,-1.8286,-1.8247,-1.8273,-1.8253,-1.8209,-1.826,-1.8224,-1.8228,-1.8273,-1.8325,-1.8332,-1.8339,-1.8424,-1.8442,-1.8457,0,0,0,0,0,0,-1.8358,-1.8323,-1.8293,-1.8345,-1.8339,-1.8311,-1.8343,-1.8307,-1.8313,-1.8304,-1.8256,-1.8253,-1.8302,-1.8291,-1.8251,-1.8343,-1.8285,-1.8294,-1.8348,-1.8365,-1.8379,-1.838,-1.8176,0,0,0,0,0,-1.8384,-1.8403,-1.8371,-1.842,-1.8418,-1.8382,-1.8389,-1.836,-1.8352,-1.8349,-1.8332,-1.8327,-1.8342,-1.8353,-1.8365,-1.8428,-1.8424,-1.8462,-1.8475,-1.8487,-1.8495,-1.853,-1.8547,-1.8367,-1.8367,-1.8367,0,0,-1.8437,-1.842,-1.8435,-1.8437,-1.8429,-1.8451,-1.838,-1.8406,-1.8422,-1.8353,-1.8391,-1.8379,-1.8371,-1.8424,-1.8447,-1.8417,-1.8544,-1.8496,-1.8506,-1.8507,-1.8539,-1.8556,-1.8572,-1.8372,-1.8371,-1.8371,0,0,-1.8546,-1.8534,-1.8574,-1.8568,-1.8557,-1.8533,-1.8543,-1.8521,-1.851,-1.8547,-1.8497,-1.8517,-1.8543,-1.854,-1.8542,-1.8653,-1.8614,-1.8658,-1.873,-1.8765,-1.8779,-1.8792,-1.8833,-1.8848,-1.8666,-1.8667,-1.8667,0,-1.8614,-1.8643,-1.86,-1.8629,-1.8633,-1.8572,-1.8613,-1.861,-1.8604,-1.8609,-1.8575,-1.8609,-1.8599,-1.8652,-1.8679,-1.8682,-1.8694,-1.866,-1.8781,-1.8792,-1.8803,-1.8842,-1.8857,-1.8672,-1.8671,-1.8671,-1.867,0,-1.8728,-1.875,-1.8784,-1.878,-1.8787,-1.8822,-1.8786,-1.8799,-1.877,-1.875,-1.8791,-1.8777,-1.8786,-1.8797,-1.8768,-1.8846,-1.8828,-1.8789,-1.8729,-1.8827,-1.8862,-1.8877,-1.868,-1.8678,-1.8676,-1.8675,0,0,-1.8891,-1.8863,-1.8877,-1.8875,-1.8859,-1.8876,-1.891,-1.8919,-1.8932,-1.8931,-1.8959,-1.8984,-1.8948,-1.895,-1.8921,-1.8952,-1.9043,-1.8908,-1.8908,-1.8935,-1.9131,-1.9161,-1.9179,-1.9017,-1.902,-1.9022,-1.9132,0,-1.8995,-1.9049,-1.9013,-1.9075,-1.9095,-1.9039,-1.9069,-1.9064,-1.9048,-1.9064,-1.9046,-1.9065,-1.9015,-1.9016,-1.9044,-1.9026,-1.9082,-1.9017,-1.9045,-1.9046,-1.9049,-1.9197,-1.9228,-1.9332,-1.9145,-1.9147,-1.9149,0,-1.9122,-1.9127,-1.9191,-1.9174,-1.9181,-1.9208,-1.9214,-1.923,-1.9225,-1.9211,-1.9215,-1.9179,-1.9213,-1.9156,-1.9203,-1.9161,-1.917,-1.9164,-1.9167,-1.9168,-1.9104,-1.9203,-1.9364,-1.938,-1.917,-1.9169,-1.9167,0,-1.9236,-1.9258,-1.93,-1.93,-1.928,-1.9301,-1.9295,-1.9286,-1.9294,-1.93,-1.9305,-1.9316,-1.9322,-1.9332,-1.9301,-1.9261,-1.9354,-1.9293,-1.9344,-1.9345,-1.9366,-1.9365,-1.9532,-1.9372,-1.9371,-1.9371,-1.9371,0,-1.9356,-1.9398,-1.9351,-1.9376,-1.9422,-1.9381,-1.9428,-1.9415,-1.9409,-1.9432,-1.9385,-1.9409,-1.9366,-1.9386,-1.9362,-1.9407,-1.9409,-1.94,-1.9393,-1.9404,-1.9406,-1.941,-1.9402,-1.9375,-1.9374,-1.9373,-1.9373,0,-1.949,-1.946,-1.9502,-1.948,-1.9476,-1.9511,-1.9494,-1.9518,-1.9499,-1.9529,-1.9534,-1.9505,-1.9526,-1.9496,-1.9514,-1.9499,-1.956,-1.9542,-1.9562,-1.9557,-1.961,-1.9606,-1.9786,-1.9808,-1.9633,-1.9635,-1.9636,0,-1.9568,-1.9599,-1.9582,-1.9594,-1.9589,-1.961,-1.9618,-1.958,-1.9591,-1.9589,-1.9614,-1.9631,-1.9642,-1.968,-1.9661,-1.9676,-1.9658,-1.972,-1.966,-1.9671,-1.966,-1.9659,-1.9663,-1.9732,-1.9735,-1.9736,-1.9738,0,-1.9711,-1.9695,-1.9708,-1.9718,-1.9729,-1.9735,-1.9737,-1.975,-1.971,-1.9726,-1.9747,-1.9756,-1.9776,-1.9794,-1.9804,-1.9799,-1.9763,-1.9757,-1.977,-1.9782,-1.9792,-1.9788,-1.9596,-1.9753,-1.9751,-1.975,-1.9749,-1.9749,-1.982,-1.9845,-1.9838,-1.9855,-1.9853,-1.9857,-1.9879,-1.9863,-1.9879,-1.9891,-1.9869,-1.9896,-1.9893,-1.9902,-1.9902,-1.9924,-1.9897,-1.9915,-1.992,-1.9925,-1.9934,-1.9789,-1.9926,-1.9925,-1.9925,-1.9924,-1.9924,0,-1.9961,-1.9954,-1.997,-1.9975,-1.999,-1.9954,-1.9955,-1.997,-1.9995,-1.9994,-2.0007,-2.0033,-2.0052,-2.0035,-2.0051,-2.0072,-2.0056,-2.0078,-2.0076,-2.0076,-1.9957,-1.9944,-2.0091,-2.0091,-2.009,-2.009,-2.009,-2.009,-2.0036,-2.0078,-2.0062,-2.0103,-2.0096,-2.0122,-2.0126,-2.0131,-2.013,-2.0161,-2.0176,-2.0165,-2.0159,-2.0174,-2.0191,-2.0185,-2.0194,-2.0222,-2.0211,-2.01,-2.0084,-2.0068,-2.0056,-2.0224,-2.0224,-2.0328,-2.0329,-2.033]},{"header":{"parameterUnit":"m.s-1","parameterCategory":1,"la1":30.2991,"la2":30.254,"lo1":-89.0895,"lo2":-89.0444,"dy":0.0017,"dx":0.0017,"nx":28,"ny":28,"refTime":"2024-02-13T03:00:00:Z","depth":0,"parameterNumber":3,"parameterNumberName":"V-component_of_WINDS"},"data":[0,0,0,0,0,0,0,0,0,0,0,0,0,0,0,0,0,0,0,0,0,0,0,0,0,0,0,0,0,0,0,0,0,0,0,0,0,0,0,0,0,0,0,0,0,0,0,0,0,0,0,0,0,0,0,0,0,0,1.5959,1.5958,0,1.593,1.593,1.593,1.5964,1.5966,1.5967,1.5968,1.5934,1.5932,1.5929,0,0,0,0,0,0,0,0,0,0,0,0,0,1.6038,1.6037,1.5959,1.5958,1.5958,1.593,1.593,1.593,1.5964,1.5966,1.5967,1.5969,1.5934,1.5932,1.5929,0,0,0,0,0,0,0,0,0,0,0,0,0,1.6006,1.6036,1.5959,1.5972,1.5973,1.5931,1.593,1.593,1.5964,1.5966,1.5968,1.597,1.5935,1.5932,1.5929,1.587,0,0,1.5919,1.5918,0,0,0,0,0,0,0,0,1.6008,1.6003,1.5971,1.5971,1.5972,1.5953,1.5945,1.5909,1.5963,1.5967,1.5968,1.5971,1.5938,1.5935,1.5925,1.5869,1.5867,1.5919,1.5917,1.5916,1.5915,0,0,0,0,0,0,0,1.601,1.6004,1.5947,1.597,1.5971,1.5978,1.5976,1.5939,1.5942,1.5967,1.597,1.5966,1.5939,1.5928,1.5924,1.5867,1.5919,1.5916,1.5914,1.5913,1.576,1.5758,0,0,0,0,0,0,1.6011,1.6006,1.5948,1.5947,1.5995,1.5975,1.5972,1.5957,1.5942,1.5942,1.5964,1.5968,1.5933,1.5928,1.5923,1.5853,1.5916,1.5913,1.5911,1.5762,1.5759,1.5757,0,0,0,0,0,0,1.6013,1.6006,1.5949,1.5977,1.597,1.5972,1.5954,1.5956,1.5945,1.5941,1.5941,1.5953,1.5934,1.5928,1.5883,1.5852,1.5911,1.5908,1.5764,1.5761,1.5758,1.5711,0,0,0,0,0,0,1.6015,1.6006,1.5985,1.5976,1.5969,1.5911,1.5952,1.5954,1.594,1.5944,1.593,1.5929,1.5935,1.5888,1.588,1.5849,1.5906,1.5767,1.5763,1.5759,1.5716,1.5707,1.57,0,0,0,0,0,1.6018,1.5972,1.5984,1.5976,1.5942,1.5909,1.5905,1.5914,1.5937,1.5915,1.5912,1.593,1.5857,1.5883,1.5875,1.5842,1.5769,1.5764,1.5759,1.5719,1.5709,1.57,0,0,0,0,0,0,1.5974,1.5971,1.5984,1.5934,1.5922,1.5915,1.5887,1.5902,1.5882,1.5886,1.5897,1.5893,1.5846,1.584,1.5868,1.5784,1.5817,1.581,1.5789,1.5779,1.5771,1.5772,1.5903,0,0,0,0,0,1.596,1.5935,1.5932,1.5888,1.5882,1.5886,1.5872,1.588,1.5867,1.5861,1.5855,1.5841,1.5815,1.5797,1.5773,1.5716,1.5712,1.5689,1.5681,1.5674,1.5667,1.5636,1.5625,1.5741,1.5741,1.5741,0,0,1.5927,1.5923,1.5906,1.588,1.5871,1.5843,1.5881,1.585,1.5829,1.5856,1.5814,1.5809,1.5793,1.5742,1.5719,1.5735,1.5635,1.5668,1.5663,1.566,1.563,1.5619,1.5609,1.5738,1.5738,1.5739,0,0,1.5855,1.5849,1.5812,1.5803,1.5791,1.5794,1.5785,1.5776,1.5774,1.5733,1.5753,1.5727,1.5682,1.567,1.5658,1.5582,1.5596,1.5574,1.553,1.5499,1.549,1.5482,1.5453,1.5443,1.5567,1.5567,1.5567,0,1.5816,1.5776,1.579,1.5758,1.5745,1.5771,1.5732,1.5723,1.5702,1.5692,1.5711,1.5656,1.5647,1.5593,1.5574,1.5564,1.5553,1.5574,1.5491,1.5483,1.5475,1.5448,1.5437,1.5564,1.5565,1.5565,1.5565,0,1.5728,1.57,1.5672,1.5653,1.5637,1.5602,1.5609,1.5591,1.5601,1.5602,1.5559,1.555,1.5524,1.5512,1.5521,1.5459,1.5469,1.549,1.5522,1.5461,1.5435,1.5425,1.556,1.5561,1.5562,1.5563,0,0,1.5625,1.5616,1.5605,1.5596,1.5585,1.5563,1.5529,1.5506,1.5489,1.5475,1.5444,1.5407,1.5426,1.5412,1.542,1.5393,1.5331,1.5417,1.5416,1.5399,1.5261,1.5244,1.5232,1.5343,1.5341,1.5339,1.5261,0,1.555,1.5492,1.5504,1.5447,1.542,1.5445,1.5415,1.5404,1.5404,1.5381,1.538,1.5353,1.5381,1.5372,1.5347,1.5344,1.5303,1.535,1.5312,1.5311,1.5313,1.5218,1.52,1.5127,1.5252,1.525,1.5249,0,1.5455,1.5439,1.5379,1.5372,1.5362,1.5334,1.5314,1.5292,1.528,1.5281,1.5267,1.528,1.5244,1.528,1.5229,1.5261,1.5247,1.5243,1.524,1.5235,1.5274,1.5208,1.5105,1.5093,1.5233,1.5235,1.5236,0,1.5384,1.5347,1.5306,1.5298,1.529,1.527,1.5265,1.5255,1.524,1.5222,1.5212,1.519,1.5176,1.5158,1.5164,1.519,1.5112,1.5148,1.511,1.511,1.509,1.5091,1.498,1.5085,1.5085,1.5085,1.5085,0,1.5298,1.526,1.5274,1.5248,1.5206,1.522,1.5177,1.5175,1.5166,1.5139,1.516,1.5134,1.5145,1.512,1.5125,1.5081,1.5076,1.5074,1.5076,1.5071,1.5071,1.506,1.5064,1.5082,1.5083,1.5083,1.5084,0,1.5209,1.5218,1.5174,1.5171,1.5169,1.5138,1.5133,1.5109,1.5112,1.5078,1.507,1.5073,1.5045,1.505,1.5018,1.5021,1.4966,1.4975,1.497,1.4972,1.4933,1.4935,1.4809,1.4792,1.491,1.4908,1.4908,0,1.5153,1.5125,1.5118,1.5103,1.5097,1.5072,1.5058,1.5071,1.5054,1.5039,1.5016,1.4989,1.4969,1.4921,1.4919,1.4895,1.4901,1.4859,1.4897,1.4894,1.4898,1.4899,1.4895,1.485,1.4849,1.4848,1.4847,0,1.5052,1.5057,1.5037,1.5017,1.5,1.4985,1.4972,1.4957,1.4969,1.495,1.4922,1.4906,1.4874,1.4847,1.4824,1.4817,1.4833,1.4835,1.4825,1.4819,1.4817,1.4815,1.4947,1.4837,1.4838,1.4839,1.484,1.484,1.4976,1.4952,1.4944,1.492,1.4912,1.4899,1.4876,1.4876,1.4854,1.483,1.4839,1.4806,1.4794,1.4766,1.4757,1.473,1.4746,1.4731,1.4727,1.4722,1.4717,1.4823,1.4726,1.4727,1.4727,1.4727,1.4727,0,1.4874,1.4871,1.4849,1.483,1.4811,1.4831,1.4818,1.4799,1.4771,1.476,1.474,1.4707,1.4681,1.4678,1.4653,1.4632,1.4639,1.4625,1.4625,1.4623,1.4705,1.4716,1.462,1.462,1.462,1.462,1.462,1.462,1.4818,1.4778,1.4783,1.4738,1.4735,1.4704,1.4694,1.4682,1.4673,1.4637,1.4616,1.4615,1.4606,1.4581,1.4558,1.4558,1.4546,1.4529,1.4531,1.4607,1.4618,1.4628,1.4638,1.4527,1.4527,1.4451,1.4451,1.445]}]]